This is the latest recevied weather packets stored in our database for station/object KD8ZLZ-13. If no packets are shown the sender has not sent any weather packets the latest 10 day(s).
| Time | Temp. | Humidity | Pressure | Rain* | Wind** | Luminosity | Snow |
|---|---|---|---|---|---|---|---|
| 1777773192 | 3.89° C | 72% | 1017.3 hPa | 0 mm | - | 0 W/m² | - |
| 1777772592 | 4.44° C | 70% | 1017.3 hPa | 0 mm | - | 0 W/m² | - |
| 1777771992 | 5° C | 67% | 1017.3 hPa | 0 mm | - | 0 W/m² | - |
| 1777771392 | 5.56° C | 62% | 1017.3 hPa | 0 mm | - | 0 W/m² | - |
| 1777770792 | 6.11° C | 51% | 1017.3 hPa | 0 mm | - | 0 W/m² | - |
| 1777770192 | 6.67° C | 49% | 1017.3 hPa | 0 mm | - | 0 W/m² | - |
| 1777769592 | 7.22° C | 52% | 1017.3 hPa | 0 mm | - | 0 W/m² | - |
| 1777768992 | 7.78° C | 51% | 1017.3 hPa | 0 mm | - | 3 W/m² | - |
| 1777768391 | 8.33° C | 46% | 1017 hPa | 0 mm | - | 7 W/m² | - |
| 1777767791 | 8.33° C | 44% | 1017.3 hPa | 0 mm | - | 13 W/m² | - |
| 1777767192 | 8.89° C | 42% | 1017.3 hPa | 0 mm | - | 20 W/m² | - |
| 1777766591 | 8.33° C | 43% | 1017.3 hPa | 0 mm | - | 29 W/m² | - |
| 1777765991 | 8.33° C | 40% | 1017.3 hPa | 0 mm | - | 41 W/m² | - |
| 1777765391 | 8.33° C | 41% | 1017.3 hPa | 0 mm | - | 37 W/m² | - |
| 1777764791 | 8.33° C | 42% | 1017.3 hPa | 0 mm | - | 46 W/m² | - |
| 1777764191 | 8.89° C | 41% | 1017.3 hPa | 0 mm | - | 63 W/m² | - |
| 1777763591 | 8.89° C | 41% | 1017.3 hPa | 0 mm | - | 80 W/m² | - |
| 1777762992 | 8.89° C | 41% | 1017.3 hPa | 0 mm | - | 81 W/m² | - |
| 1777762391 | 8.89° C | 40% | 1017.3 hPa | 0 mm | - | 87 W/m² | - |
| 1777761791 | 8.89° C | 40% | 1017.3 hPa | 0 mm | - | 121 W/m² | - |
| 1777761191 | 8.89° C | 40% | 1017.3 hPa | 0 mm | - | 123 W/m² | - |
| 1777760591 | 8.89° C | 40% | 1017.3 hPa | 0 mm | - | 97 W/m² | - |
| 1777759991 | 8.89° C | 38% | 1017.3 hPa | 0 mm | - | 112 W/m² | - |
| 1777759391 | 8.89° C | 39% | 1017.3 hPa | 0 mm | - | 165 W/m² | - |
| 1777758791 | 8.89° C | 39% | 1017.3 hPa | 0 mm | - | 207 W/m² | - |
* Rain latest hour (hover to see other rain measurements)
** Current wind speed in m/s (hover to see current wind gust speed)